[[{"header":{"parameterUnit":"m.s-1","parameterCategory":1,"la1":30.2991,"la2":30.254,"lo1":-89.0895,"lo2":-89.0444,"dy":0.0017,"dx":0.0017,"nx":28,"ny":28,"refTime":"2024-04-21T03:00:00:Z","depth":0,"parameterNumber":2,"parameterNumberName":"U-component_of_WINDS"},"data":[0,0,0,0,0,0,0,0,0,0,0,0,0,0,0,0,0,0,0,0,0,0,0,0,0,0,0,0,0,0,0,0,0,0,0,0,0,0,0,0,0,0,0,0,0,0,0,0,0,0,0,0,0,0,0,0,0,0,-0.7417,-0.7417,0,-0.739,-0.7389,-0.7389,-0.7364,-0.7364,-0.7364,-0.7364,-0.7335,-0.7334,-0.7334,0,0,0,0,0,0,0,0,0,0,0,0,0,-0.7448,-0.7448,-0.7417,-0.7417,-0.7417,-0.739,-0.7389,-0.7389,-0.7364,-0.7364,-0.7364,-0.7363,-0.7335,-0.7334,-0.7334,0,0,0,0,0,0,0,0,0,0,0,0,0,-0.7429,-0.7447,-0.7418,-0.7401,-0.74,-0.739,-0.7389,-0.7389,-0.7365,-0.7364,-0.7364,-0.7363,-0.7335,-0.7334,-0.7333,-0.7337,0,0,-0.7331,-0.7331,0,0,0,0,0,0,0,0,-0.743,-0.7428,-0.7404,-0.7402,-0.74,-0.738,-0.7389,-0.7372,-0.7365,-0.7378,-0.7364,-0.7363,-0.735,-0.7348,-0.7344,-0.7336,-0.7335,-0.7331,-0.7331,-0.733,-0.733,0,0,0,0,0,0,0,-0.7431,-0.7429,-0.7406,-0.7404,-0.7402,-0.7395,-0.7392,-0.7386,-0.7367,-0.7377,-0.7375,-0.7372,-0.7349,-0.7345,-0.7343,-0.7334,-0.7331,-0.733,-0.733,-0.733,-0.7327,-0.7328,0,0,0,0,0,0,-0.7435,-0.743,-0.7407,-0.7406,-0.7415,-0.7395,-0.7391,-0.7387,-0.7367,-0.7363,-0.7372,-0.7371,-0.7346,-0.7344,-0.7342,-0.7345,-0.733,-0.733,-0.7329,-0.7327,-0.7327,-0.7328,0,0,0,0,0,0,-0.7436,-0.7434,-0.7408,-0.7417,-0.7414,-0.7395,-0.739,-0.7387,-0.7382,-0.7363,-0.736,-0.7371,-0.7346,-0.7343,-0.7338,-0.7343,-0.7329,-0.7329,-0.7327,-0.7327,-0.7328,-0.7351,0,0,0,0,0,0,-0.7437,-0.7434,-0.7436,-0.7418,-0.7413,-0.7406,-0.7391,-0.7386,-0.7381,-0.7379,-0.7362,-0.7358,-0.7345,-0.734,-0.7338,-0.7342,-0.7328,-0.7326,-0.7327,-0.7328,-0.7349,-0.7352,-0.7354,0,0,0,0,0,-0.7438,-0.7443,-0.7436,-0.7433,-0.7415,-0.7406,-0.7404,-0.7389,-0.7382,-0.7383,-0.737,-0.7359,-0.7343,-0.734,-0.7337,-0.7341,-0.7326,-0.7327,-0.7327,-0.7348,-0.7351,-0.7354,0,0,0,0,0,0,-0.7462,-0.7441,-0.7432,-0.7432,-0.7421,-0.7402,-0.7404,-0.7393,-0.7384,-0.7382,-0.7364,-0.736,-0.7358,-0.7349,-0.7345,-0.7343,-0.7333,-0.7333,-0.7349,-0.7352,-0.7354,-0.7357,-0.7327,0,0,0,0,0,-0.7468,-0.7463,-0.7444,-0.7445,-0.744,-0.7423,-0.7419,-0.7408,-0.7396,-0.7391,-0.7379,-0.7368,-0.736,-0.7356,-0.7348,-0.7348,-0.7343,-0.7349,-0.7352,-0.7354,-0.7354,-0.7353,-0.7355,-0.7331,-0.7331,-0.7331,0,0,-0.7478,-0.7466,-0.7464,-0.745,-0.744,-0.7435,-0.7419,-0.7415,-0.7411,-0.7391,-0.7386,-0.7376,-0.7362,-0.736,-0.7359,-0.7353,-0.736,-0.7355,-0.7356,-0.7356,-0.7354,-0.7357,-0.7359,-0.7331,-0.7331,-0.7331,0,0,-0.7496,-0.7486,-0.7486,-0.7476,-0.7462,-0.745,-0.745,-0.7433,-0.7426,-0.7421,-0.7405,-0.74,-0.7387,-0.7378,-0.7372,-0.7384,-0.7373,-0.7382,-0.7395,-0.7394,-0.7396,-0.7397,-0.7402,-0.7403,-0.7383,-0.7383,-0.7383,0,-0.7511,-0.7503,-0.7487,-0.7483,-0.7477,-0.7458,-0.7457,-0.7449,-0.7433,-0.7429,-0.7423,-0.7406,-0.7396,-0.7391,-0.7394,-0.7389,-0.7388,-0.7384,-0.7397,-0.7398,-0.7399,-0.7403,-0.7405,-0.7384,-0.7384,-0.7384,-0.7384,0,-0.7522,-0.7517,-0.7518,-0.7504,-0.7497,-0.7495,-0.7478,-0.7474,-0.7463,-0.7452,-0.7446,-0.7433,-0.7422,-0.7419,-0.7409,-0.7413,-0.741,-0.74,-0.7389,-0.7403,-0.7407,-0.7408,-0.7386,-0.7385,-0.7385,-0.7385,0,0,-0.7555,-0.753,-0.7531,-0.7524,-0.7506,-0.7502,-0.7498,-0.7487,-0.7484,-0.7473,-0.7469,-0.7459,-0.745,-0.7442,-0.7431,-0.743,-0.744,-0.742,-0.742,-0.7425,-0.7443,-0.7451,-0.7453,-0.7432,-0.7433,-0.7433,-0.7444,0,-0.7569,-0.7563,-0.7547,-0.7545,-0.754,-0.7521,-0.7518,-0.7507,-0.7496,-0.749,-0.7477,-0.747,-0.7459,-0.7454,-0.7452,-0.744,-0.7444,-0.7438,-0.7429,-0.7429,-0.7433,-0.7454,-0.7462,-0.7474,-0.7446,-0.7446,-0.7446,0,-0.7585,-0.7576,-0.7573,-0.7556,-0.7553,-0.755,-0.7539,-0.7533,-0.7519,-0.7511,-0.7503,-0.749,-0.7484,-0.7474,-0.7466,-0.7463,-0.7458,-0.7451,-0.7451,-0.7449,-0.7438,-0.7454,-0.7477,-0.7479,-0.7448,-0.7448,-0.7447,0,-0.7609,-0.7596,-0.7592,-0.7586,-0.7566,-0.7564,-0.7556,-0.7542,-0.7536,-0.7525,-0.7521,-0.751,-0.7504,-0.7496,-0.748,-0.7474,-0.7474,-0.7462,-0.7467,-0.7467,-0.7468,-0.7468,-0.7491,-0.7464,-0.7464,-0.7464,-0.7464,0,-0.7627,-0.7626,-0.7603,-0.7601,-0.7599,-0.7581,-0.7579,-0.7569,-0.7556,-0.7551,-0.7534,-0.753,-0.7509,-0.7502,-0.749,-0.7485,-0.7482,-0.7475,-0.7472,-0.7477,-0.7478,-0.7474,-0.7473,-0.7465,-0.7465,-0.7465,-0.7464,0,-0.7654,-0.7638,-0.7633,-0.7614,-0.7609,-0.7608,-0.7591,-0.7588,-0.7576,-0.757,-0.7567,-0.7548,-0.7539,-0.7522,-0.7508,-0.75,-0.7498,-0.7492,-0.7502,-0.75,-0.7506,-0.7506,-0.7527,-0.7529,-0.7501,-0.7501,-0.7502,0,-0.7667,-0.7666,-0.7646,-0.7641,-0.7633,-0.7627,-0.762,-0.7602,-0.7596,-0.758,-0.7579,-0.7568,-0.7559,-0.7545,-0.753,-0.7519,-0.7513,-0.7521,-0.7511,-0.7516,-0.7513,-0.7513,-0.7513,-0.7523,-0.7524,-0.7524,-0.7524,0,-0.7691,-0.7683,-0.7675,-0.7664,-0.7657,-0.7647,-0.7637,-0.7634,-0.7613,-0.7607,-0.7598,-0.759,-0.7576,-0.7566,-0.7552,-0.7542,-0.753,-0.7527,-0.7528,-0.7533,-0.7539,-0.7536,-0.7509,-0.7527,-0.7527,-0.7527,-0.7527,-0.7526,-0.7711,-0.7709,-0.7695,-0.7686,-0.7676,-0.7666,-0.7662,-0.7649,-0.7641,-0.7628,-0.7618,-0.7609,-0.7594,-0.7575,-0.7566,-0.7559,-0.7553,-0.7553,-0.7554,-0.7554,-0.7556,-0.754,-0.7556,-0.7556,-0.7556,-0.7556,-0.7556,0,-0.7734,-0.7724,-0.7716,-0.7702,-0.7695,-0.7683,-0.7671,-0.7665,-0.7658,-0.7646,-0.7637,-0.7625,-0.7615,-0.7598,-0.7587,-0.7584,-0.7578,-0.7581,-0.7581,-0.7579,-0.7562,-0.7563,-0.7586,-0.7586,-0.7586,-0.7586,-0.7586,-0.7586,-0.7746,-0.7741,-0.7731,-0.7722,-0.7711,-0.7703,-0.7697,-0.7687,-0.7677,-0.7665,-0.7657,-0.7646,-0.7632,-0.7618,-0.7608,-0.7603,-0.76,-0.7605,-0.7599,-0.7583,-0.7581,-0.7578,-0.7578,-0.7605,-0.7605,-0.7617,-0.7617,-0.7617]},{"header":{"parameterUnit":"m.s-1","parameterCategory":1,"la1":30.2991,"la2":30.254,"lo1":-89.0895,"lo2":-89.0444,"dy":0.0017,"dx":0.0017,"nx":28,"ny":28,"refTime":"2024-04-21T03:00:00:Z","depth":0,"parameterNumber":3,"parameterNumberName":"V-component_of_WINDS"},"data":[0,0,0,0,0,0,0,0,0,0,0,0,0,0,0,0,0,0,0,0,0,0,0,0,0,0,0,0,0,0,0,0,0,0,0,0,0,0,0,0,0,0,0,0,0,0,0,0,0,0,0,0,0,0,0,0,0,0,-4.6333,-4.6333,0,-4.637,-4.6371,-4.6371,-4.636,-4.6359,-4.6358,-4.6357,-4.6392,-4.6393,-4.6395,0,0,0,0,0,0,0,0,0,0,0,0,0,-4.6247,-4.6249,-4.6332,-4.6333,-4.6333,-4.637,-4.6371,-4.6371,-4.636,-4.6359,-4.6358,-4.6357,-4.6391,-4.6393,-4.6395,0,0,0,0,0,0,0,0,0,0,0,0,0,-4.6285,-4.625,-4.6332,-4.6332,-4.6333,-4.637,-4.6371,-4.6371,-4.636,-4.6359,-4.6358,-4.6357,-4.6391,-4.6393,-4.6395,-4.6434,0,0,-4.6403,-4.6404,0,0,0,0,0,0,0,0,-4.6282,-4.6288,-4.6332,-4.6332,-4.6333,-4.6359,-4.6353,-4.6392,-4.636,-4.6349,-4.6357,-4.6356,-4.6382,-4.6385,-4.6394,-4.6436,-4.6437,-4.6403,-4.6405,-4.6406,-4.6406,0,0,0,0,0,0,0,-4.628,-4.6286,-4.6347,-4.6332,-4.6333,-4.6329,-4.6333,-4.6361,-4.6371,-4.635,-4.635,-4.6354,-4.6382,-4.6392,-4.6395,-4.6438,-4.6403,-4.6405,-4.6407,-4.6408,-4.6514,-4.6516,0,0,0,0,0,0,-4.6277,-4.6284,-4.6346,-4.6348,-4.6304,-4.6332,-4.6336,-4.6352,-4.6371,-4.6373,-4.6355,-4.6354,-4.6388,-4.6392,-4.6396,-4.6444,-4.6406,-4.6408,-4.6409,-4.6513,-4.6515,-4.6516,0,0,0,0,0,0,-4.6276,-4.6283,-4.6345,-4.6316,-4.6324,-4.6335,-4.6352,-4.6353,-4.6364,-4.6375,-4.6377,-4.6364,-4.6388,-4.6393,-4.6425,-4.6445,-4.6409,-4.6411,-4.6511,-4.6513,-4.6515,-4.6539,0,0,0,0,0,0,-4.6273,-4.6283,-4.6298,-4.6317,-4.6325,-4.6374,-4.6353,-4.6355,-4.6368,-4.6367,-4.6384,-4.6385,-4.6387,-4.6422,-4.6428,-4.6448,-4.6413,-4.651,-4.6512,-4.6515,-4.6537,-4.6542,-4.6546,0,0,0,0,0,-4.627,-4.6302,-4.6299,-4.6306,-4.6345,-4.6375,-4.638,-4.6383,-4.637,-4.6385,-4.6393,-4.6385,-4.6442,-4.6425,-4.6432,-4.6453,-4.6508,-4.6512,-4.6514,-4.6535,-4.6541,-4.6546,0,0,0,0,0,0,-4.6283,-4.6304,-4.6301,-4.634,-4.6356,-4.6373,-4.6393,-4.6389,-4.6408,-4.6405,-4.6406,-4.641,-4.6444,-4.6451,-4.6433,-4.6492,-4.6473,-4.6478,-4.6486,-4.6492,-4.6497,-4.6495,-4.6415,0,0,0,0,0,-4.6291,-4.6315,-4.6332,-4.6364,-4.6373,-4.6381,-4.6395,-4.6395,-4.6412,-4.6418,-4.6428,-4.6443,-4.6465,-4.6479,-4.6499,-4.6538,-4.6542,-4.6555,-4.656,-4.6564,-4.6568,-4.6591,-4.6598,-4.6526,-4.6526,-4.6526,0,0,-4.6306,-4.6321,-4.6336,-4.6367,-4.638,-4.6404,-4.6387,-4.6413,-4.6431,-4.6421,-4.6454,-4.6462,-4.6479,-4.6515,-4.6532,-4.6523,-4.6589,-4.6568,-4.6571,-4.6573,-4.6595,-4.6601,-4.6607,-4.6528,-4.6528,-4.6527,0,0,-4.6347,-4.636,-4.639,-4.6404,-4.6424,-4.643,-4.6437,-4.6456,-4.6461,-4.6494,-4.6488,-4.6509,-4.6545,-4.6558,-4.657,-4.6618,-4.6611,-4.6624,-4.6649,-4.6671,-4.6677,-4.6682,-4.67,-4.6707,-4.6628,-4.6628,-4.6628,0,-4.6363,-4.6402,-4.6405,-4.6433,-4.6447,-4.6442,-4.6472,-4.6484,-4.6509,-4.6519,-4.6509,-4.6556,-4.6567,-4.6607,-4.6619,-4.6628,-4.6636,-4.6622,-4.6676,-4.6681,-4.6686,-4.6703,-4.671,-4.663,-4.6629,-4.6629,-4.6629,0,-4.6421,-4.6448,-4.6469,-4.6496,-4.6513,-4.6541,-4.6549,-4.6565,-4.6564,-4.6571,-4.6605,-4.6618,-4.6642,-4.6651,-4.665,-4.6692,-4.6686,-4.6676,-4.6657,-4.6694,-4.6711,-4.6717,-4.6632,-4.6631,-4.6631,-4.663,0,0,-4.6471,-4.6501,-4.6509,-4.6522,-4.6545,-4.6565,-4.6594,-4.6619,-4.6633,-4.6651,-4.6675,-4.6707,-4.6698,-4.6711,-4.6711,-4.6731,-4.677,-4.6718,-4.6719,-4.6728,-4.6818,-4.6827,-4.6835,-4.6766,-4.6767,-4.6768,-4.6817,0,-4.6515,-4.6567,-4.6572,-4.6618,-4.6643,-4.6639,-4.6664,-4.668,-4.6687,-4.6709,-4.6716,-4.674,-4.6726,-4.6734,-4.6753,-4.6761,-4.6788,-4.6757,-4.6788,-4.6789,-4.6785,-4.6843,-4.6852,-4.6898,-4.6824,-4.6825,-4.6825,0,-4.6573,-4.6596,-4.6645,-4.6667,-4.6677,-4.67,-4.6724,-4.6745,-4.6763,-4.6767,-4.6783,-4.6781,-4.681,-4.679,-4.6829,-4.6809,-4.6821,-4.6827,-4.6829,-4.6833,-4.681,-4.6849,-4.6912,-4.692,-4.6835,-4.6835,-4.6834,0,-4.6606,-4.6648,-4.6684,-4.6695,-4.6721,-4.6737,-4.6748,-4.6766,-4.6781,-4.6801,-4.6812,-4.6834,-4.6847,-4.6865,-4.6869,-4.6854,-4.6909,-4.6889,-4.6913,-4.6914,-4.6926,-4.6925,-4.6993,-4.6932,-4.6932,-4.6932,-4.6932,0,-4.6656,-4.6687,-4.67,-4.6722,-4.6757,-4.6762,-4.6795,-4.6805,-4.6821,-4.6844,-4.6841,-4.6862,-4.6866,-4.6889,-4.6892,-4.6925,-4.693,-4.6935,-4.6935,-4.6936,-4.6935,-4.6944,-4.6942,-4.6934,-4.6933,-4.6933,-4.6933,0,-4.6699,-4.6709,-4.6748,-4.677,-4.6776,-4.6801,-4.6819,-4.684,-4.6847,-4.6877,-4.6884,-4.6895,-4.6922,-4.6928,-4.6958,-4.6961,-4.7001,-4.6997,-4.6995,-4.6995,-4.702,-4.7018,-4.7097,-4.7108,-4.7039,-4.7039,-4.704,0,-4.673,-4.6755,-4.678,-4.6797,-4.6809,-4.6835,-4.6852,-4.6857,-4.6874,-4.6899,-4.6917,-4.6943,-4.6965,-4.7007,-4.7017,-4.7041,-4.7039,-4.7065,-4.7042,-4.7043,-4.7041,-4.704,-4.7043,-4.707,-4.707,-4.7071,-4.7071,0,-4.6786,-4.679,-4.6815,-4.6843,-4.6863,-4.6884,-4.6904,-4.6917,-4.6926,-4.6945,-4.6973,-4.699,-4.7023,-4.7049,-4.7074,-4.7084,-4.7079,-4.7079,-4.7086,-4.7087,-4.7085,-4.7088,-4.7008,-4.7077,-4.7076,-4.7076,-4.7076,-4.7075,-4.6825,-4.6847,-4.6869,-4.6898,-4.6914,-4.6933,-4.6955,-4.6966,-4.699,-4.7019,-4.702,-4.7051,-4.707,-4.7102,-4.7114,-4.7138,-4.713,-4.714,-4.7142,-4.7145,-4.7148,-4.7081,-4.7142,-4.7142,-4.7142,-4.7141,-4.7141,0,-4.6882,-4.6896,-4.6922,-4.6952,-4.6974,-4.697,-4.6992,-4.7011,-4.7039,-4.7058,-4.708,-4.7113,-4.7139,-4.7152,-4.7178,-4.7194,-4.7193,-4.7201,-4.72,-4.7203,-4.7153,-4.7145,-4.7202,-4.7202,-4.7202,-4.7202,-4.7202,-4.7202,-4.6914,-4.6952,-4.6959,-4.7005,-4.7018,-4.7051,-4.7064,-4.7082,-4.7097,-4.7135,-4.7158,-4.7167,-4.7183,-4.721,-4.7234,-4.7237,-4.7247,-4.7256,-4.7258,-4.7212,-4.7206,-4.72,-4.7193,-4.7258,-4.7258,-4.7306,-4.7307,-4.7307]}]]